TimePST,TemperatureF,Dew PointF,Humidity,Sea Level PressureIn,VisibilityMPH,Wind Direction,Wind SpeedMPH,Gust SpeedMPH,PrecipitationIn,Events,Conditions,WindDirDegrees,DateUTC
12:53 AM,39.9,37.9,93,29.62,10.0,WSW,6.9,-,N/A,,Overcast,250,2012-12-12 08:53:00
1:53 AM,39.9,37.9,93,29.63,10.0,WSW,13.8,-,N/A,,Overcast,240,2012-12-12 09:53:00
2:53 AM,39.9,37.9,93,29.65,10.0,WSW,8.1,-,0.00,,Overcast,250,2012-12-12 10:53:00
3:53 AM,39.9,37.9,93,29.66,10.0,West,6.9,-,N/A,,Overcast,260,2012-12-12 11:53:00
4:53 AM,39.0,37.0,93,29.68,10.0,Calm,Calm,-,N/A,,Overcast,0,2012-12-12 12:53:00
5:53 AM,39.0,37.9,96,29.70,10.0,West,5.8,-,N/A,,Overcast,260,2012-12-12 13:53:00
6:53 AM,39.0,37.9,96,29.71,10.0,SW,5.8,-,0.00,,Overcast,230,2012-12-12 14:53:00
7:10 AM,37.4,37.4,100,29.71,10.0,SW,5.8,-,N/A,,Mostly Cloudy,220,2012-12-12 15:10:00
7:40 AM,37.4,37.4,100,29.72,10.0,SW,3.5,-,N/A,,Overcast,220,2012-12-12 15:40:00
7:53 AM,37.0,37.0,100,29.74,10.0,Calm,Calm,-,N/A,,Overcast,0,2012-12-12 15:53:00
8:53 AM,39.2,37.4,93,29.75,10.0,Calm,Calm,-,N/A,,Overcast,0,2012-12-12 16:53:00
9:40 AM,41.0,37.4,87,29.78,10.0,Calm,Calm,-,N/A,,Overcast,0,2012-12-12 17:40:00
9:53 AM,41.0,37.9,89,29.80,10.0,Calm,Calm,-,N/A,,Overcast,0,2012-12-12 17:53:00
10:53 AM,42.1,39.0,89,29.82,10.0,Calm,Calm,-,N/A,,Mostly Cloudy,0,2012-12-12 18:53:00
11:53 AM,43.0,37.9,82,29.83,10.0,Calm,Calm,-,N/A,,Overcast,0,2012-12-12 19:53:00
12:53 PM,44.1,37.9,79,29.84,10.0,Calm,Calm,-,N/A,,Overcast,0,2012-12-12 20:53:00
1:53 PM,44.1,39.0,82,29.86,10.0,Calm,Calm,-,N/A,,Overcast,0,2012-12-12 21:53:00
2:53 PM,44.1,39.0,82,29.88,10.0,Calm,Calm,-,N/A,,Overcast,0,2012-12-12 22:53:00
3:17 PM,44.6,39.2,81,29.87,10.0,East,4.6,-,N/A,,Overcast,100,2012-12-12 23:17:00
3:53 PM,44.1,37.9,79,29.90,10.0,Calm,Calm,-,N/A,,Overcast,0,2012-12-12 23:53:00
4:53 PM,42.1,39.9,92,29.92,10.0,NNW,4.6,-,N/A,,Overcast,340,2012-12-13 00:53:00
5:53 PM,42.1,39.9,92,29.94,10.0,NNW,3.5,-,N/A,,Overcast,340,2012-12-13 01:53:00
6:53 PM,42.1,39.9,92,29.95,10.0,NNW,3.5,-,N/A,,Overcast,330,2012-12-13 02:53:00
7:11 PM,42.8,41.0,93,29.94,10.0,Calm,Calm,-,N/A,,Overcast,0,2012-12-13 03:11:00
7:53 PM,41.0,39.9,96,29.98,10.0,Calm,Calm,-,N/A,,Overcast,0,2012-12-13 03:53:00
8:53 PM,41.0,39.9,96,29.98,10.0,Calm,Calm,-,N/A,,Overcast,0,2012-12-13 04:53:00
9:53 PM,41.0,39.9,96,30.00,10.0,Calm,Calm,-,N/A,,Overcast,0,2012-12-13 05:53:00
10:44 PM,41.0,39.2,93,30.00,10.0,Calm,Calm,-,N/A,,Overcast,0,2012-12-13 06:44:00
10:53 PM,41.0,39.9,96,30.01,10.0,Calm,Calm,-,N/A,,Overcast,0,2012-12-13 06:53:00
11:00 PM,41.0,39.2,93,30.00,10.0,Calm,Calm,-,N/A,,Overcast,0,2012-12-13 07:00:00
11:53 PM,39.9,39.0,97,30.02,10.0,Calm,Calm,-,N/A,,Overcast,0,2012-12-13 07:53:00